Overview Statistics Trail Chart Weather Telemetry Raw packets
 

This is the latest recevied weather packets stored in our database for station/object WA6ODQ-13. If no packets are shown the sender has not sent any weather packets the latest 10 day(s).

<< 106 107 108 109 110 111 112 >>
Time Temp. Humidity Pressure Rain* Wind** Luminosity Snow
1787862563 33.33° C 35% 1011.9 hPa 0 mm - 276 W/m² -
1787862259 33.89° C 34% 1011.9 hPa 0 mm - 387 W/m² -
1787861953 33.33° C 33% 1011.8 hPa 0 mm - 618 W/m² -
1787861648 33.33° C 34% 1011.8 hPa 0 mm - 490 W/m² -
1787861345 33.33° C 34% 1011.8 hPa 0 mm - 723 W/m² -
1787861041 33.33° C 34% 1011.8 hPa 0 mm - 843 W/m² -
1787860740 32.78° C 36% 1011.8 hPa 0 mm - 796 W/m² -
1787860436 33.33° C 35% 1011.9 hPa 0 mm - 283 W/m² -
1787860135 33.89° C 36% 1011.8 hPa 0 mm - 561 W/m² -
1787859830 32.78° C 34% 1011.7 hPa 0 mm - 793 W/m² -
1787859525 32.78° C 35% 1012.1 hPa 0 mm - 349 W/m² -
1787859220 32.22° C 37% 1011.9 hPa 0 mm - 440 W/m² -
1787858917 32.78° C 36% 1012 hPa 0 mm - 341 W/m² -
1787858612 32.78° C 36% 1011.9 hPa 0 mm - 302 W/m² -
1787858307 33.33° C 36% 1012 hPa 0 mm - 691 W/m² -
1787858002 33.89° C 36% 1012 hPa 0 mm - 668 W/m² -
1787857698 33.33° C 36% 1012.2 hPa 0 mm - 686 W/m² -
1787857393 33.33° C 37% 1012.3 hPa 0 mm - 699 W/m² -
1787857090 32.78° C 36% 1012.4 hPa 0 mm - 580 W/m² -
1787856786 32.78° C 38% 1012.4 hPa 0 mm - 667 W/m² -
1787856480 32.78° C 37% 1012.3 hPa 0 mm - 678 W/m² -
1787856176 32.78° C 37% 1012.7 hPa 0 mm - 624 W/m² -
1787855870 32.22° C 38% 1012.6 hPa 0 mm - 618 W/m² -
1787855565 32.78° C 39% 1012.3 hPa 0 mm - 617 W/m² -
1787855260 32.22° C 39% 1012.4 hPa 0 mm - 606 W/m² -

* Rain latest hour (hover to see other rain measurements)
** Current wind speed in m/s (hover to see current wind gust speed)